Weather History for Blue Canyon, CA

Change the Weather History Date:

Friday, October 19, 2012

  Actual Average Record
Temperature  
Mean Temperature 62 °F -  
Max Temperature 69 °F 62 °F 77 °F (1964)
Min Temperature 57 °F 45 °F 22 °F (1949)
Degree Days  
Heating Degree Days 2    
Growing Degree Days 12 (Base 50)    
Moisture  
Dew Point 35 °F    
Average Humidity 37    
Maximum Humidity 57    
Minimum Humidity 25    
Precipitation  
Precipitation 0.00 in - - ()
Sea Level Pressure  
Sea Level Pressure 29.94 in    
Wind  
Wind Speed 5 mph (SSE)    
Max Wind Speed 10 mph    
Max Gust Speed 17 mph    
Visibility 10 miles    
Events      
Averages and records for this station are not official NWS values.
T = Trace of Precipitation, MM = Missing Value Source: NWS Daily Summary

Daily Weather History Graph

Daily Weather History Graph

Search for Another Location

Airport:

Trip Planner

Search our weather history database for the weather conditions in past years. The results will help you decide how hot, cold, wet, or windy it might be!

Date:

Astronomy

Oct. 19, 2012 Rise Set
Actual Time 7:17 AM PDT 6:17 PM PDT
Civil Twilight 6:50 AM PDT 6:44 PM PDT
Nautical Twilight 6:18 AM PDT 7:15 PM PDT
Astronomical Twilight 5:47 AM PDT 7:46 PM PDT
Moon 12:03 PM PDT (10/19) 10:02 PM PDT (10/19)
Length of Visible Light 11h 54m
Length of Day
11h 00m
Waxing Crescent, 24% of the Moon is Illuminated
Oct 19
Waxing Crescent
Oct 21
First Quarter
Oct 29
Full
Nov 6
Last Quarter
Nov 13
New

Hourly Weather History & Observations

Time (PDT) Temp. Dew Point Humidity Pressure Visibility Wind Dir Wind Speed Gust Speed Precip Events Conditions
12:52 AM 60.1 °F 35.1 °F 39% 29.96 in 10.0 mi ESE 3.5 mph - N/A   Clear
1:52 AM 60.1 °F 35.1 °F 39% 29.97 in 10.0 mi SE 5.8 mph - N/A   Clear
2:52 AM 59.0 °F 35.1 °F 41% 29.97 in 10.0 mi SSE 3.5 mph - N/A   Clear
3:52 AM 57.9 °F 34.0 °F 41% 29.96 in 10.0 mi ESE 3.5 mph - N/A   Clear
4:52 AM 57.9 °F 34.0 °F 41% 29.97 in 10.0 mi Calm Calm - N/A   Clear
5:52 AM 60.1 °F 33.1 °F 36% 29.96 in 10.0 mi SE 3.5 mph - N/A   Clear
6:52 AM 60.1 °F 33.1 °F 36% 29.99 in 10.0 mi Calm Calm - N/A   Clear
7:52 AM 61.0 °F 32.0 °F 34% 29.99 in 10.0 mi Calm Calm - N/A   Clear
8:52 AM 63.0 °F 33.1 °F 33% 30.00 in 10.0 mi SE 3.5 mph - N/A   Clear
9:52 AM 64.0 °F 30.0 °F 28% 30.02 in 10.0 mi South 6.9 mph - N/A   Clear
10:52 AM 66.0 °F 28.9 °F 25% 29.99 in 10.0 mi South 5.8 mph - N/A   Clear
11:52 AM 66.9 °F 30.9 °F 26% 29.99 in 10.0 mi South 10.4 mph - N/A   Clear
12:52 PM 66.9 °F 30.9 °F 26% 29.96 in 10.0 mi South 8.1 mph - N/A   Clear
1:52 PM 68.0 °F 34.0 °F 28% 29.94 in 10.0 mi SSW 9.2 mph 17.3 mph N/A   Clear
2:52 PM 68.0 °F 37.9 °F 33% 29.92 in 10.0 mi South 9.2 mph - N/A   Clear
3:52 PM 66.0 °F 37.0 °F 34% 29.93 in 10.0 mi SW 6.9 mph - N/A   Clear
4:52 PM 64.9 °F 36.0 °F 34% 29.92 in 10.0 mi South 6.9 mph - N/A   Clear
5:52 PM 63.0 °F 39.9 °F 43% 29.91 in 10.0 mi South 5.8 mph - N/A   Clear
6:52 PM 59.0 °F 41.0 °F 51% 29.91 in 10.0 mi SSE 3.5 mph - N/A   Clear
7:52 PM 57.0 °F 42.1 °F 57% 29.91 in 10.0 mi ESE 3.5 mph - N/A   Clear
8:52 PM 57.9 °F 39.0 °F 49% 29.88 in 10.0 mi SE 4.6 mph - N/A   Clear
9:52 PM 57.9 °F 36.0 °F 44% 29.88 in 10.0 mi SE 5.8 mph - N/A   Clear
10:52 PM 57.9 °F 32.0 °F 37% 29.87 in 10.0 mi SE 5.8 mph - N/A   Clear
11:52 PM 57.9 °F 30.9 °F 36% 29.85 in 10.0 mi SSE 6.9 mph - N/A   Overcast